Dushanbe, Tajikistan

6:55 PM +05 on December 17, 2017 (GMT +0500)
Dushanbe

Weather History for UTDD - December, 2017

Change the Weather History Date:

Thursday, December 7, 2017

  Actual Average Record
Temperature  
Mean Temperature 42 °F -  
Max Temperature 59 °F - - ()
Min Temperature 24 °F - - ()
Degree Days  
Heating Degree Days 24    
Moisture  
Dew Point 18 °F    
Average Humidity 37    
Maximum Humidity 69    
Minimum Humidity 18    
Precipitation  
Precipitation 0.00 in 0.08 in - ()
Sea Level Pressure  
Sea Level Pressure 30.14 in    
Wind  
Wind Speed 6 mph ()    
Max Wind Speed 16 mph    
Max Gust Speed -    
Visibility 5.9 miles    
Events      
T = Trace of Precipitation, MM = Missing Value Source: Averaged Metar Reports

Daily Weather History Graph

Daily Weather History Graph

Search for Another Location

Airport or City:

Trip Planner

Search our weather history database for the weather conditions in past years. The results will help you decide how hot, cold, wet, or windy it might be!

Date:

Astronomy

Dec. 07, 2017 Rise Set
Actual Time 7:28 AM +05 5:03 PM +05
Civil Twilight 6:59 AM +05 5:33 PM +05
Nautical Twilight 6:26 AM +05 6:06 PM +05
Astronomical Twilight 5:54 AM +05 6:38 PM +05
Moon 9:19 PM +05 (12/7) 10:48 AM +05 (12/7)
Length of Visible Light 10h 33m
Length of Day
9h 34m
Waning Gibbous, 82% of the Moon is Illuminated
Dec 7
Waning Gibbous
Dec 10
Last Quarter
Dec 18
New
Dec 26
First Quarter
Jan 2
Full

Hourly Weather History & Observations

Time (+05) Temp. Windchill Dew Point Humidity Pressure Visibility Wind Dir Wind Speed Gust Speed Precip Events Conditions
12:00 AM 32.0 °F 27.6 °F 19.4 °F 60% 30.24 in 5.6 mi Variable 4.5 mph - N/A   Unknown
12:30 AM 30.2 °F 25.5 °F 19.4 °F 64% 30.24 in 6.2 mi Variable 4.5 mph - N/A   Unknown
1:00 AM 32.0 °F 27.6 °F 19.4 °F 60% 30.24 in 6.2 mi Variable 4.5 mph - N/A   Unknown
1:30 AM 30.2 °F - 17.6 °F 60% 30.21 in 6.2 mi Variable 2.2 mph - N/A   Unknown
2:00 AM 29 °F - 21 °F 63% 30.20 in - Calm Calm - -  
2:00 AM 32.0 °F - 17.6 °F 55% 30.24 in 6.2 mi Variable 2.2 mph - N/A   Unknown
2:30 AM 28.4 °F - 19.4 °F 69% 30.24 in 6.2 mi Variable 2.2 mph - N/A   Unknown
3:00 AM 30.2 °F 23.5 °F 19.4 °F 64% 30.21 in 6.2 mi NNE 6.7 mph - N/A   Unknown
3:30 AM 35.6 °F 28.7 °F 14.0 °F 41% 30.21 in 6.2 mi NE 8.9 mph - N/A   Unknown
4:00 AM 35.6 °F 30.0 °F 14.0 °F 41% 30.21 in 6.2 mi NE 6.7 mph - N/A   Unknown
4:30 AM 33.8 °F 29.7 °F 15.8 °F 48% 30.21 in 6.2 mi Variable 4.5 mph - N/A   Unknown
5:00 AM 26 °F - 18 °F 62% 30.20 in - Calm Calm - -  
5:00 AM 30.2 °F - 17.6 °F 60% 30.18 in 6.2 mi Variable 2.2 mph - N/A   Unknown
5:30 AM 26.6 °F - 15.8 °F 64% 30.21 in 6.2 mi Variable 2.2 mph - N/A   Unknown
6:00 AM 32.0 °F - 14.0 °F 48% 30.18 in 6.2 mi Variable 2.2 mph - N/A   Unknown
6:30 AM 35.6 °F 28.7 °F 14.0 °F 41% 30.18 in 6.2 mi NNE 8.9 mph - N/A   Unknown
7:00 AM 35.6 °F 30.0 °F 12.2 °F 38% 30.21 in 6.2 mi ENE 6.7 mph - N/A   Unknown
7:30 AM 33.8 °F 26.5 °F 14.0 °F 44% 30.21 in 5.6 mi NNE 8.9 mph - N/A   Unknown
8:00 AM 27 °F - 20 °F 67% 30.21 in 31 mi Calm Calm - -   Clear
8:00 AM 39.2 °F 32.2 °F 12.2 °F 33% 30.21 in 5.0 mi NE 11.2 mph - N/A   Unknown
8:30 AM 41.0 °F 34.4 °F 12.2 °F 31% 30.21 in 6.2 mi ENE 11.2 mph - N/A   Unknown
9:00 AM 42.8 °F 37.6 °F 12.2 °F 29% 30.21 in 5.6 mi ENE 8.9 mph - N/A   Unknown
9:30 AM 46.4 °F 41.2 °F 14.0 °F 27% 30.21 in 6.2 mi ENE 11.2 mph - N/A   Unknown
10:00 AM 48.2 °F - 12.2 °F 24% 30.21 in 6.2 mi ENE 8.9 mph - N/A   Unknown
10:30 AM 50.0 °F - 12.2 °F 22% 30.21 in 6.2 mi ENE 8.9 mph - N/A   Unknown
11:00 AM 52 °F - 29 °F 28% 30.06 in 31 mi Calm Calm - -   Clear
11:00 AM 51.8 °F - 12.2 °F 21% 30.21 in 6.2 mi East 11.2 mph - N/A   Unknown
11:30 AM 53.6 °F - 15.8 °F 22% 30.18 in 6.2 mi East 11.2 mph - N/A   Unknown
12:00 PM 53.6 °F - 17.6 °F 24% 30.18 in 6.2 mi East 13.4 mph - N/A   Unknown
12:30 PM 55.4 °F - 15.8 °F 21% 30.15 in 6.2 mi East 13.4 mph - N/A   Unknown
1:00 PM 57.2 °F - 15.8 °F 20% 30.15 in 6.2 mi East 13.4 mph - N/A   Unknown
1:30 PM 57.2 °F - 15.8 °F 20% 30.12 in 6.2 mi East 13.4 mph - N/A   Unknown
2:00 PM 57 °F - 26 °F 18% 29.94 in 31 mi Calm Calm - -   Scattered Clouds
2:00 PM 57.2 °F - 15.8 °F 20% 30.12 in 6.2 mi East 15.7 mph - N/A   Unknown
2:30 PM 57.2 °F - 14.0 °F 18% 30.09 in 6.2 mi East 15.7 mph - N/A   Unknown
3:00 PM 57.2 °F - 17.6 °F 21% 30.09 in 6.2 mi East 13.4 mph - N/A   Unknown
3:30 PM 55.4 °F - 15.8 °F 21% 30.09 in 6.2 mi East 13.4 mph - N/A   Unknown
4:00 PM 53.6 °F - 15.8 °F 22% 30.09 in 6.2 mi East 11.2 mph - N/A   Unknown
4:30 PM 51.8 °F - 19.4 °F 28% 30.09 in 6.2 mi East 8.9 mph - N/A   Unknown
5:00 PM 53 °F - 29 °F 27% 29.94 in 31 mi Calm Calm - -   Scattered Clouds
5:00 PM 51.8 °F - 15.8 °F 24% 30.09 in 6.2 mi ENE 6.7 mph - N/A   Unknown
5:30 PM 50.0 °F - 17.6 °F 28% 30.09 in 6.2 mi East 8.9 mph - N/A   Unknown
6:00 PM 48.2 °F - 21.2 °F 34% 30.09 in 4.3 mi ENE 8.9 mph - N/A   Unknown
6:30 PM 48.2 °F - 21.2 °F 34% 30.09 in 4.3 mi ENE 11.2 mph - N/A   Unknown
7:00 PM 48.2 °F - 21.2 °F 34% 30.06 in 4.3 mi NE 8.9 mph - N/A   Unknown
7:30 PM 48.2 °F - 21.2 °F 34% 30.06 in 4.3 mi ENE 8.9 mph - N/A   Unknown
8:00 PM 39 °F - 28 °F 54% 30.01 in - Calm Calm - -   Partly Cloudy
8:00 PM 48.2 °F - 21.2 °F 34% 30.06 in 4.3 mi NE 8.9 mph - N/A   Unknown
8:30 PM 48.2 °F - 21.2 °F 34% 30.06 in 5.0 mi NE 8.9 mph - N/A   Unknown
9:00 PM 48.2 °F - 19.4 °F 32% 30.06 in 6.2 mi NE 8.9 mph - N/A   Unknown
9:30 PM 48.2 °F - 19.4 °F 32% 30.06 in 6.2 mi NE 8.9 mph - N/A   Unknown
10:00 PM 48.2 °F - 19.4 °F 32% 30.06 in 6.2 mi NE 8.9 mph - N/A   Unknown
10:30 PM 50.0 °F - 17.6 °F 28% 30.06 in 6.2 mi NE 11.2 mph - N/A   Unknown
11:00 PM 40 °F - 28 °F 52% 29.96 in - Calm Calm - -   Partly Cloudy
11:00 PM 48.2 °F - 19.4 °F 32% 30.04 in 6.2 mi ENE 11.2 mph - N/A   Unknown
11:30 PM 50.0 °F - 17.6 °F 28% 30.04 in 6.2 mi NE 11.2 mph - N/A   Unknown